User: anonymous   Login
Location: Campillo
(40.8621°N, 4.2488°W)
Time: 23:42:03
(UTC+00:00)
Language:

Cosmos 1959 Rocket - Orbit

View from above orbital plane
View from above orbital plane
View from above satellite
View from above satellite

Ground track
Ground track

The orbit data is extracted from the following two-line orbital elements,

1 19325U 88062B   21204.50787720 -.00000025  00000-0 -40153-4 0  9995
2 19325  82.9513 349.9771 0033798   2.3105  62.0690 13.77630982621425
Epoch (UTC): 23 July 2021 12:11:20
Eccentricity: 0.0033798
inclination: 82.9513°
perigee height: 947 km
apogee height: 997 km
right ascension of ascending node: 349.9771°
argument of perigee: 2.3105°
revolutions per day: 13.77630982
mean anomaly at epoch: 62.0690°
orbit number at epoch: 62142

The dashed part of the orbit path shows where the satellite is in the earth's shadow,  

DLR